Location: Bagnara
(41.0500°N, 14.7833°E)
Time: 14:48:11
(UTC+00:00)

Cosmos 2208 Rocket - Pass Details

Date: 20 June 2021
Orbit: 754 x 805 km, 74.0° (Epoch: 04 August)

Event Time Altitude Azimuth Distance (km) Brightness Sun altitude
Exits shadow 01:16:43 32° 230° (SW) 1,350 4.7 -18.4°
Maximum altitude 01:19:03 56° 293° (WNW) 954 4.4 -18.1°
Drops below altitude 10° 01:24:25 10° 11° (N) 2,392 7.6 -17.6°
Sets 01:26:53 0° 16° (NNE) 3,328 8.7 -17.3°
